Terug naar catalogus

STARLINK-11136

ActiefCommunicatieVLEO
NORAD 60407·PAYLOAD·🇺🇸 United States

Gelanceerd Aug 10, 2024 vanaf Cape Canaveral Space Force Station

Loading…

Volgende Passages (komende 24 uur)

TLE

VersSource: CelesTrak SupGP

Epoch: Sep 14, 2026, 14:19 UTC

1 60407C 24141K   26257.59701389 -.00027534  00000+0 -22684-3 0  2577
2 60407  53.1574 235.1403 0001121  88.6032 184.0554 15.69720178    18

Volg STARLINK-11136 in realtime met AllMySat

Download on the App Store